Regional Weather Roundup
Issued by NWS Wilmington, NC

Home | Current Version | Previous Version | Text Only | Print | Product List | Glossary On
Versions: 1 2 3 4 5 6 7 8 9 10 11 12 13 14 15 16 17 18 19 20 21 22 23 24 25 26 27 28 29 30 31 32 33 34 35 36 37 38 39 40 41 42 43 44 45 46 47 48 49 50
000
ASUS42 KILM 051510
RWRILM
RWRILM
REGIONAL HOURLY WEATHER ROUNDUP
NATIONAL WEATHER SERVICE WILMINGTON NC
1000 AM EST THU MAR 05 2015

NOTE: "FAIR" INDICATES FEW OR NO CLOUDS BELOW 12,000 FEET WITH NO
SIGNIFICANT WEATHER AND/OR OBSTRUCTIONS TO VISIBILITY.

...............WFO WILMINGTON COUNTY WARNING AREA...............

......COASTAL NC AND SC COUNTIES......

CITY           SKY/WX    TMP DP  RH WIND       PRES   REMARKS
WILMINGTON     SUNNY     71  63  75 SW18G29   29.98S
SOUTHPORT      FOG       58  57  98 SW16G24   30.01F VSB 1/2
N MYRTLE BEACH FOG       57  55  93 SW18      29.99S VSB 1/4
MYRTLE BEACH   SUNNY     66  57  72 S14       30.01S

......INLAND NC AND SC COUNTIES.......

CITY           SKY/WX    TMP DP  RH WIND       PRES   REMARKS
LUMBERTON      CLOUDY    69  62  78 SW14G28   29.94F
ELIZABETHTOWN  PTSUNNY   71  62  72 SW10G20   29.96S
WHITEVILLE     MOSUNNY   72  62  71 SW9G17    29.98R
FLORENCE       CLOUDY    70  62  76 SW16G24   29.95F
DARLINGTON     PTSUNNY   70  61  73 SW23G29   29.94F

....................REST OF NORTH CAROLINA......................

.........EASTERN NC.........

CITY           SKY/WX    TMP DP  RH WIND       PRES   REMARKS
CAPE HATTERAS  FOG       59  59 100 SW12      29.97F VSB 1/4
JACKSONVILLE   MOSUNNY   73  61  64 SW16G23   29.95F
MOREHEAD CITY  CLOUDY    59  59 100 SW9       29.98S FOG
KENANSVILLE    MOSUNNY   71  60  69 SW8       29.95S
NEW BERN       MOSUNNY   75  61  61 SW12      29.95F
ELIZABETH CITY LGT RAIN  41  39  93 NE18G28   30.03S

.........CENTRAL NC.........

CITY           SKY/WX    TMP DP  RH WIND       PRES   REMARKS
RALEIGH DURHAM RAIN      55  52  89 N8G18     29.93R FOG
ROCKY MOUNT    CLOUDY    52  49  89 N13G18    29.94R
ROANOKE RAPIDS NOT AVBL
FAYETTEVILLE   CLOUDY    69  62  78 S16G23    29.92S
HOFFMAN        PTSUNNY   68  63  83 S14G21    29.94F

.........WESTERN NC.........

CITY           SKY/WX    TMP DP  RH WIND       PRES   REMARKS
CHARLOTTE      RAIN      65  62  90 S13       29.88R FOG
GREENSBORO     RAIN      45  43  93 NE9       29.92S FOG
HICKORY        NOT AVBL
BOONE          NOT AVBL
ASHEVILLE      NOT AVBL

.....................REST OF SOUTH CAROLINA.....................

.........EASTERN SC.........

CITY           SKY/WX    TMP DP  RH WIND       PRES   REMARKS
CHARLESTON     MOSUNNY   72  63  73 SW18G31   30.02S
BEAUFORT MCAS  PTSUNNY   71  63  75 S8        30.02R
HILTON HEAD    CLOUDY    64  63  94 SW12G21   30.05S FOG

.........CENTRAL SC.........

CITY           SKY/WX    TMP DP  RH WIND       PRES   REMARKS
COLUMBIA       CLOUDY    72  62  71 SW21G28   29.94R
ORANGEBURG     CLOUDY    72  62  71 SW17G25   29.98S
SUMTER SHAW    CLOUDY    70  62  76 SW18G24   29.94F

.........WESTERN SC.........

CITY           SKY/WX    TMP DP  RH WIND       PRES   REMARKS
GREENVILLE     NOT AVBL
ROCK HILL      CLOUDY    68  62  81 SW17G29   29.88S
ANDERSON       CLOUDY    66  63  90 SW15      29.88S
CLEMSON        NOT AVBL
GREENWOOD      LGT RAIN  67  64  90 S17G29    29.92S FOG


...................COASTAL AND OFFSHORE REPORTS..................

................LOCAL PIERS AND NC RESERVE................


STATION/POSITION TIME  SKY/WX   TEMP    WIND        PRES    VSBY
                                AIR SEA DIR/SP/G
                 (UTC)          (F)     (DEG/KT/KT) (MB)    (MI)
JOHNY MRCER PIER 1500            68 49  220/ 22/ 28 1014.3S
NC RESRV MASNBRO 1400            68     220/  8     1015.0R
OCEAN CREST PIER 1500            55 49  190/ 19/ 23 1014.9F
SPRINGMAID  PIER 1500            51 46  200/ 10/ 11 1015.9R


................COASTAL AND OFFSHORE BUOYS................


STATION/POSITION TIME  SKY/WX   TEMP    WIND        PRES    VSBY
                                AIR SEA DIR/SP/G
                 (UTC)          (F)     (DEG/KT/KT) (MB)    (MI)
DIMNDSHOAL 41025 NOT AVBL
CAPE LOOKOUT     1500            62     220/ 13/ 20 1015.0F
ONSLOW BAY 41036 NOT AVBL
5 WRITEBCH 41038 NOT AVBL
MASONBORO  41110 1500               48                N/A
WVE H/P(F/S)=  4/ 8 WND WVE H/P(F/S)=  5/ 8

WILM HARBR 41108 1500               49                N/A
WVE H/P(F/S)=  5/ 7 WND WVE H/P(F/S)=  5/ 7

27WRITEBCH 41037 NOT AVBL
FRYING PAN 41013 1500            68 65  220/ 17/ 21 1016.4F
WVE H/P(F/S)=  6/ 7 WND WVE H/P(F/S)=  7/ 7

SUNST NRSH 41024 1400            53     230/ 17/ 21   N/A
CAPRS NRSH 41029 1400            53     230/  8/ 10   N/A
EDISTO     41004 1500            70 68  200/ 21/ 27 1016.0F
WVE H/P(F/S)=  6/ 7 WND WVE H/P(F/S)=  5/ 6 SWL H/P/D(F/S/D)=  3/ 7



..........OFFSHORE BUOYS BEYOND 100 NM OFFSHORE...........
.....IN A TRIANGLE---HAT TO BERMUDA TO BAHAMAS TO HAT.....


STATION/POSITION TIME  SKY/WX   TEMP    WIND        PRES    VSBY
                                AIR SEA DIR/SP/G
                 (UTC)          (F)     (DEG/KT/KT) (MB)    (MI)
150E HAT   41001 NOT AVBL
W BERMUDA  41048 1351            70 69  190/ 12/ 14 1023.6
WVE H/P(F/S)=  4/11 WND WVE H/P(F/S)=  3/ 6 SWL H/P/D(F/S/D)=  3/ 80/11

ATLANTIC S 41049 1416            73 74   80/ 12/ 14 1026.7S
WVE H/P(F/S)=  5/ 9 WND WVE H/P(F/S)=  2/ 4 SWL H/P/D(F/S/D)=  5/ 40/ 9

E BAHAMAS  41046 1402            77 78  110/ 16/ 19 1023.7R
WVE H/P(F/S)=  7/11 WND WVE H/P(F/S)=  5/ 6 SWL H/P/D(F/S/D)=  5/ 60/11

NE BAHAMAS 41047 1402            74 73  140/ 12/ 14 1024.5
WVE H/P(F/S)=  5/11 WND WVE H/P(F/S)=  2/ 5 SWL H/P/D(F/S/D)=  5/120/11

120E CANVRL41010 1500            74 75  180/ 16/ 17 1021.3R
WVE H/P(F/S)=  4/11 WND WVE H/P(F/S)=  3/ 5 SWL H/P/D(F/S/D)=  3/100/11


END


USA.gov is the U.S. government's official web portal to all federal, state and local government web resources and services.